Location: New Orleans
(29.9540°N, 90.0750°W)
Time: 16:30:16
(UTC-05:00)

N. Korean satellite - Visible Passes

Search period start: 11 August 2020 00:00
Search period end: 21 August 2020 00:00
Orbit: 453 x 506 km, 97.2° (Epoch: 11 August)

Date Brightness Start Highest point End Pass type
(mag) Time Alt. Az. Time Alt. Az. Time Alt. Az.
11 Aug 9.0 05:56:43 10° NE 05:59:45 26° E 06:02:48 10° SSE visible
12 Aug 9.9 05:32:31 10° ENE 05:33:45 11° E 05:35:00 10° ESE visible
15 Aug 9.5 05:46:48 10° NE 05:49:27 19° E 05:52:07 10° SE visible
18 Aug 8.6 06:01:48 10° NNE 06:05:06 32° E 06:08:24 10° SSE visible
19 Aug 9.7 05:37:05 10° ENE 05:39:06 14° E 05:41:08 10° SE visible
